Weather History for KGRB - April, 2014

Change the Weather History Date:

Monday, April 28, 2014

  Actual Average Record
Temperature  
Mean Temperature 44 °F 49 °F  
Max Temperature 50 °F 60 °F 85 °F (1974)
Min Temperature 38 °F 38 °F 25 °F (1965)
Degree Days  
Heating Degree Days 21 16  
Month to date heating degree days 654 606  
Since 1 July heating degree days 8429 7506  
Cooling Degree Days 0 0  
Month to date cooling degree days 0 0  
Year to date cooling degree days 0 0  
Moisture  
Dew Point 34 °F    
Average Humidity 73    
Maximum Humidity 93    
Minimum Humidity 53    
Precipitation  
Precipitation 0.28 in 0.09 in 1.16 in (1899)
Month to date precipitation 3.40 2.45  
Year to date precipitation 7.10 6.54  
Snow  
Snow 0.00 in 0.00 in 1.30 in (2008)
Month to date snowfall 3.7 2.8  
Since 1 July snowfall 72.1 51.1  
Snow Depth 0.00 in    
Sea Level Pressure  
Sea Level Pressure 29.89 in    
Wind  
Wind Speed 17 mph (NE)    
Max Wind Speed 31 mph    
Max Gust Speed 36 mph    
Visibility 9 miles    
Events Rain    
T = Trace of Precipitation, MM = Missing Value Source: NWS Daily Summary

Daily Weather History Graph

Daily Weather History Graph

Search for Another Location

Airport or City:

Trip Planner

Search our weather history database for the weather conditions in past years. The results will help you decide how hot, cold, wet, or windy it might be!

Date:

Astronomy

Apr. 28, 2014 Rise Set
Actual Time 5:47 AM CDT 7:53 PM CDT
Civil Twilight 5:15 AM CDT 8:25 PM CDT
Nautical Twilight 4:36 AM CDT 9:04 PM CDT
Astronomical Twilight 3:54 AM CDT 9:47 PM CDT
Moon 5:27 AM CDT (4/28) 7:29 PM CDT (4/28)
Length of Visible Light 15h 09m
Length of Day
14h 05m
Waning Crescent, 0% of the Moon is Illuminated
Apr 28
Waning Crescent
Apr 29
New
May 6
First Quarter
May 14
Full
May 21
Last Quarter

Hourly Weather History & Observations

Time (CDT) Temp. Windchill Dew Point Humidity Pressure Visibility Wind Dir Wind Speed Gust Speed Precip Events Conditions
12:53 AM 44.6 °F 37.4 °F 28.4 °F 53% 29.99 in 10.0 mi ENE 16.1 mph - N/A   Overcast
1:53 AM 42.8 °F 36.2 °F 30.2 °F 61% 29.99 in 10.0 mi East 12.7 mph 23.0 mph N/A Rain Light Rain
2:53 AM 42.8 °F 35.8 °F 30.2 °F 61% 29.99 in 10.0 mi East 13.8 mph - N/A   Overcast
3:53 AM 43.0 °F 35.7 °F 30.9 °F 62% 29.98 in 10.0 mi ENE 15.0 mph - N/A   Overcast
4:53 AM 42.8 °F 35.8 °F 30.2 °F 61% 29.95 in 10.0 mi ENE 13.8 mph - N/A   Overcast
5:53 AM 43.0 °F 35.1 °F 28.9 °F 58% 29.96 in 10.0 mi ENE 17.3 mph 24.2 mph N/A   Overcast
6:53 AM 43.0 °F 35.4 °F 28.9 °F 58% 29.95 in 10.0 mi ENE 16.1 mph - 0.00 in   Overcast
7:53 AM 44.1 °F 37.1 °F 30.0 °F 58% 29.95 in 10.0 mi ENE 15.0 mph - N/A   Overcast
8:53 AM 44.1 °F 37.7 °F 30.9 °F 60% 29.95 in 10.0 mi ENE 12.7 mph - 0.00 in   Overcast
9:53 AM 44.1 °F 35.9 °F 30.0 °F 58% 29.93 in 10.0 mi ENE 19.6 mph - 0.00 in   Overcast
10:53 AM 45.0 °F 37.1 °F 32.0 °F 60% 29.91 in 10.0 mi ENE 19.6 mph 26.5 mph 0.00 in Rain Light Rain
11:53 AM 50.0 °F - 34.0 °F 54% 29.86 in 10.0 mi NE 19.6 mph 28.8 mph 0.00 in   Partly Cloudy
12:53 PM 45.0 °F 37.9 °F 34.0 °F 65% 29.88 in 10.0 mi NE 16.1 mph - N/A   Overcast
1:53 PM 43.0 °F 34.5 °F 34.0 °F 71% 29.88 in 10.0 mi NE 19.6 mph - 0.00 in Rain Light Rain
2:53 PM 44.1 °F 35.9 °F 34.0 °F 68% 29.84 in 10.0 mi NE 19.6 mph - 0.00 in   Overcast
3:53 PM 42.8 °F 34.5 °F 33.8 °F 70% 29.81 in 10.0 mi NE 18.4 mph - N/A   Overcast
4:53 PM 42.1 °F 34.9 °F 34.0 °F 73% 29.83 in 10.0 mi NE 13.8 mph - 0.00 in Rain Light Rain
5:53 PM 43.0 °F 41.3 °F 35.1 °F 74% 29.84 in 10.0 mi NNE 3.5 mph - 0.01 in Rain Light Rain
6:53 PM 41.0 °F 34.7 °F 37.0 °F 86% 29.84 in 3.0 mi NE 10.4 mph - 0.09 in Rain Light Rain
7:30 PM 41.0 °F 34.3 °F 37.9 °F 89% 29.85 in 1.2 mi ENE 11.5 mph - 0.11 in Rain Rain
7:49 PM 41.0 °F 32.2 °F 39.2 °F 93% 29.83 in 4.0 mi ENE 18.4 mph - 0.14 in Rain Light Rain
7:53 PM 41.0 °F 32.2 °F 39.0 °F 93% 29.85 in 10.0 mi ENE 18.4 mph - 0.15 in   Overcast
8:53 PM 41.0 °F 31.4 °F 37.9 °F 89% 29.83 in 10.0 mi ENE 21.9 mph 31.1 mph N/A   Overcast
9:25 PM 41.0 °F 31.6 °F 37.9 °F 89% 29.82 in 10.0 mi ENE 20.7 mph - N/A   Overcast
9:53 PM 41.0 °F 31.6 °F 39.0 °F 93% 29.83 in 10.0 mi NE 20.7 mph - N/A   Overcast
10:53 PM 39.0 °F 27.8 °F 37.0 °F 93% 29.79 in 9.0 mi NE 26.5 mph 33.4 mph 0.00 in Rain Light Rain
11:49 PM 37.4 °F 26.9 °F 37.4 °F 100% 29.77 in 10.0 mi NE 20.7 mph 32.2 mph 0.02 in   Overcast
11:53 PM 37.9 °F 27.6 °F 37.0 °F 97% 29.79 in 10.0 mi NE 20.7 mph 28.8 mph 0.02 in   Overcast